STARLINK-32582, 62033

Orbit data source: Space-Track

STARLINK-32582, 62033 is a payload satellite owned by SpaceX/Seattle (US) in LEO that was launched on Thu, 21 Nov 2024 UTC via an FALCON 9 launch vehicle from the Air Force Eastern Test Range (AFETR). Payload-class satellites include a variety of spacecraft equipped with specific instruments for various scientific and technological missions. These include communications satellites like Starlink; space stations such as the ISS; scientific satellites like the Hubble; Earth observation satellites from companies like Planet Labs, Umbra, and HawkEye 360; GPS; miniature CubeSats for education and research; and military/defense satellites.

Loading next visibility...
Identifier
62033, 2024-216B
Orbit
LEO
Country
Flag of USUS
Related business
Manufacturer
SpaceX/Seattle
Mission
Operational Commercial Communications
Bus & Motor
STARLINK V2M, Unknown motor
Mass
730 kg wet, ~700 kg dry
Launch date (UTC)
2024-11-21 (1 year ago)
Launch vehicle
FALCON 9
Launch site
Air Force Eastern Test Range (AFETR)
Object type
Payload
Rocket body
Debris
Shape & HBR
Box + 2 Pan, 17.7 m
Radar Cross Section
33.884 m², Large (>1 m²)

Expand to show TLE details & history
Last TLE update: 13 hours ago

TLE from 13 hours ago
0 STARLINK-32582
1 62033U 24216B   26123.93469248  .00036692  00000-0  13355-2 0  9993
2 62033  43.0004 311.3386 0001608 260.3432  99.7238 15.27598587 82248
Epoch: 2026-05-03T22:25Z
TLE epoch observation values (Epoch: 2026-05-03T22:25:57.430Z)
Latitude
-0.00001°
Longitude
113.01818°
Altitude
482.955 km
Speed
7.626 km/s
True Right ascension
20h 45m 21s
True Declination
0° 00' 00"
Sunlit
Object was in daylight at epoch
Visualization orbit readout
Latitude
Unknown
Longitude
Unknown
Altitude
Unknown
Speed
Unknown
Apparent Right ascension
Unknown
Apparent Declination
Unknown
Sunlit
N/A
Visualization observer readout
Local Sidereal Time
19:35:01
Azimuth
Unknown
Elevation
Unknown
Doppler factor
Unknown
Orbital elements
Apogee altitude
486.042 km
Perigee altitude
483.835 km
Semi-major axis
6,863.076 km
Eccentricity
0.00016
Inclination
43.0004°
RAAN
311.3386°
Arg. of periapsis
260.3432°
True anomaly
99.74196°
Mean anomaly
99.7238°
Eccentric anomaly
99.73288°
Mean motion
3.81738 °/min
Orbital period
94.31 mins
BSTAR
0.0013355
Loading maneuver chart data...
Computing Atmospheric mass density...
Loading historical data...
Loading historical data...
Loading historical data...
Loading historical data...
Loading historical data...
Loading historical data...
Loading historical data...

Documentation

Showing up to 5 results
|